Location: Casco Millpond
(44.5581°N, 87.6111°W)
Time: 22:59:37
(UTC+00:00)

Cosmos 2154 Rocket - Pass Details

Date: 16 January 2026
Orbit: 965 x 997 km, 82.9° (Epoch: 13 February)

Event Time Altitude Azimuth Distance (km) Brightness Sun altitude
Rises 11:59:58 0° 204° (SSW) 3,694 6.9 -14.5°
Reaches altitude 10° 12:02:35 10° 210° (SSW) 2,746 6.2 -14.1°
Maximum altitude 12:08:39 48° 284° (WNW) 1,265 4.2 -13.0°
Drops below altitude 10° 12:14:43 10° 358° (N) 2,743 6.2 -12.0°
Sets 12:17:21 0° 4° (N) 3,690 6.9 -11.6°
